Home > Weather > The Settlement > Past weeks

Flag for Christmas Island Past Weather in The Settlement, Christmas Island — Yesterday and Last 2 Weeks

Now
73 °F

Partly sunny.


Feels Like: 70 °F
Forecast: 76 / 81 °F
Wind: 6 mph from Southwest

Location: Christmas Island Aerodrome

Current Time: Jul 25, 2016 at 7:36:40 AM

Latest Report: Jul 25, 2016 at 7:00 AM


Visibility: N/A

Pressure: 29.95 "Hg

Humidity: 94%

Dew Point: 72 °F

Location of The SettlementLocation

Past Weather in The Settlement — Graph

°F

The Settlement Temperature Yesterday

Maximum temperature yesterday: 84 °F (at 12:00 PM)
Minimum temperature yesterday: 75 °F (at 8:30 PM)
Average temperature yesterday: 79 °F

High & Low Weather Summary for the Past Weeks

 TemperatureHumidityPressure
High84 °F (Jul 24, 12:00 PM)100% (Jul 10, 10:30 PM)29.95 "Hg (Jul 10, 10:30 PM)
Low72 °F (Jul 12, 3:30 PM)70% (Jul 19, 10:00 AM)29.80 "Hg (Jul 14, 2:00 PM)
Average77 °F89%29.89 "Hg
* Reported Jul 10 6:00 AM — Jul 25 6:00 AM, The Settlement, Weather by CustomWeather, © 2016

Note: Actual official high and low records may vary slightly from our data, if they occured in-between our weather recording intervals... More about our weather records

Advertising

The Settlement Weather History for the Previous 24 Hours

Scroll right to see more
 ConditionsComfort  
Time TempWeatherWind HumidityBarometerVisibility
6:00 AM
Mon, Jul 25
73 °FDrizzle. Mostly cloudy.5 mph94%29.95 "Hg4 mi
5:00 AM73 °FSprinkles. Mostly cloudy.3 mph94%29.92 "HgN/A
4:30 AM73 °FLight rain. Overcast.2 mph94%29.92 "HgN/A
4:00 AM73 °FLots of rain. Overcast.1 mph94%29.92 "Hg2 mi
3:00 AM73 °FLight rain. Partly cloudy.3 mph89%29.89 "HgN/A
2:30 AM73 °FOvercast.5 mph94%29.89 "HgN/A
2:00 AM72 °FOvercast.5 mph94%29.89 "HgN/A
1:30 AM73 °FLots of rain. Overcast.5 mph94%29.92 "Hg2 mi
1:00 AM75 °FSprinkles. Overcast.1 mph100%29.92 "Hg2 mi
11:30 PM
Sun, Jul 24
75 °FPassing clouds.No wind94%29.92 "HgN/A
11:00 PM75 °FPassing clouds.1 mph94%29.95 "HgN/A
9:00 PM75 °FClear.No wind94%29.92 "HgN/A
8:30 PM75 °FClear.No wind94%29.92 "HgN/A
5:30 PM81 °FSunny.No wind84%29.86 "HgN/A
5:00 PM81 °FSunny.5 mph79%29.86 "HgN/A
1:00 PM82 °FBroken clouds.9 mph79%29.86 "HgN/A
12:30 PM84 °FScattered clouds.8 mph70%29.89 "HgN/A
12:00 PM84 °FBroken clouds.8 mph74%29.89 "HgN/A
11:30 AM82 °FScattered clouds.8 mph74%29.89 "HgN/A
11:00 AM82 °FScattered clouds.8 mph74%29.92 "HgN/A
9:46 AM82 °FScattered clouds.8 mph79%29.92 "HgN/A
9:00 AM81 °FScattered clouds.9 mph84%29.95 "HgN/A
8:30 AM81 °FPartly sunny.7 mph89%29.95 "HgN/A
8:00 AM79 °FPartly sunny.7 mph89%29.95 "HgN/A
7:00 AM79 °FPartly sunny.6 mph89%29.89 "HgN/A
Weather by CustomWeather, © 2016

See weather overviewHow to use our weather pages